This demonstration page uses our WeatherBlox Daily Observations layout. Learn more.

40.92945, -100.16068

Hourly Observations for August 3, 2019

Temp ( °F °C ) Dew Point ( °F °C ) Humidity (%) Winds ( mph kmh ) Pressure ( in mb ) Visibility ( mi km ) Precip ( " mm )
12:15 am 00:15 Cloudy 70 21.3 70 21 98 98 E 6 9 30 1016 7 11.265408 0 0
12:35 am 00:35 Cloudy 70 21.3 70 21 98 98 ESE 7 11 30 1016 7 11.265408 0 0
12:55 am 00:55 Cloudy 70 21.3 70 20.9 98 98 ESE 8 13 30 1016 10 16.09344 0 0
1:15 am 01:15 Cloudy 70 21.1 69 20.6 97 97 SE 7 11 30 1016 10 16.09344 0 0
1:35 am 01:35 Cloudy 70 21.1 69 20.7 98 98 SE 6 9 30 1016 10 16.09344 0 0
1:55 am 01:55 Cloudy 70 21.1 69 20.7 98 98 SSE 5 7 30 1016 7 11.265408 0 0
2:15 am 02:15 Cloudy 70 21 69 20.6 98 98 SSE 5 7 30 1016 7 11.265408 0 0
2:35 am 02:35 Cloudy 70 21.1 69 20.7 98 98 SSE 5 7 30 1016 7 11.265408 0 0
2:55 am 02:55 Cloudy 70 21.2 69 20.7 97 97 SSE 6 9 30 1016 7 11.265408 0 0
3:15 am 03:15 Cloudy 70 21.1 69 20.8 98 98 S 5 7 30 1016 7 11.265408 0 0
3:35 am 03:35 Cloudy 70 21 69 20.7 98 98 S 5 7 30 1016 7 11.265408 0 0
3:55 am 03:55 Cloudy 70 21 69 20.6 98 98 Calm 30 1016 7 11.265408 0 0
4:15 am 04:15 Cloudy 70 21 69 20.7 98 98 Calm 30 1016 7 11.265408 0 0
4:35 am 04:35 Cloudy with Mist and Fog 70 21 69 20.7 98 98 Calm 29.97 1015 5 8.04672 0 0
4:55 am 04:55 Mostly Cloudy with Mist and Fog 69 20.5 69 20.5 100 100 Calm 29.97 1015 4 6.437376 0 0
5:15 am 05:15 Mostly Cloudy with Mist and Fog 67 19.7 67 19.7 100 100 Calm 30 1016 1 1.609344 0 0
5:35 am 05:35 Mostly Cloudy with Mist and Fog 67 19.5 67 19.5 100 100 W 3 6 30 1016 2 3.218688 0 0
5:55 am 05:55 Cloudy with Mist and Fog 66 18.9 66 18.9 100 100 Calm 30 1016 1 1.609344 0 0
6:15 am 06:15 Mostly Cloudy with Mist and Fog 67 19.2 67 19.2 100 100 Calm 30 1016 2.5 4.02336 0 0
6:35 am 06:35 Cloudy with Mist and Fog 67 19.4 67 19.4 100 100 SW 3 6 30 1016 2 3.218688 0 0
6:55 am 06:55 Cloudy with Mist and Fog 68 20 68 20 100 100 WSW 5 7 30.03 1017 2 3.218688 0 0
7:15 am 07:15 Cloudy with Mist and Fog 68 20 68 20 100 100 W 5 7 30.03 1017 1.25 2.01168 0 0
7:35 am 07:35 Cloudy with Mist and Fog 68 20.1 68 20.1 100 100 Calm 30.03 1017 1.25 2.01168 0 0
7:55 am 07:55 Cloudy with Mist and Fog 69 20.3 69 20.3 100 100 Calm 30.03 1017 3 4.828032 0 0
8:15 am 08:15 Cloudy with Mist and Fog 69 20.6 69 20.4 99 99 Calm 30.03 1017 4 6.437376 0 0
8:35 am 08:35 Cloudy with Mist and Fog 70 21.1 69 20.4 96 96 Calm 30 1016 5 8.04672 0 0
8:55 am 08:55 Cloudy 71 21.5 69 20.3 93 93 Calm 30 1016 7 11.265408 0 0
9:15 am 09:15 Cloudy 71 21.5 69 20.4 93 93 Calm 30 1016 7 11.265408 0 0
9:35 am 09:35 Cloudy 71 21.5 69 20.4 93 93 WNW 3 6 30 1016 7 11.265408 0 0
9:55 am 09:55 Cloudy 71 21.7 69 20.3 92 92 W 5 7 30 1016 7 11.265408 0 0
10:15 am 10:15 Cloudy 72 22.1 68 20.2 89 89 Calm 30 1016 7 11.265408 0 0
10:35 am 10:35 Cloudy 73 22.6 68 20.2 86 86 Calm 30 1016 10 16.09344 0 0
10:55 am 10:55 Cloudy 73 22.7 69 20.5 87 87 NW 3 6 30 1016 10 16.09344 0 0
11:15 am 11:15 Cloudy 74 23.3 68 20 82 82 Calm 30 1016 10 16.09344 0 0
11:35 am 11:35 Cloudy 74 23.6 68 19.9 80 80 Calm 30 1016 10 16.09344 0 0
11:55 am 11:55 Cloudy 74 23.5 68 20 81 81 Calm 30 1016 10 16.09344 0 0
12:15 pm 12:15 Cloudy 75 23.9 68 20 79 79 SW 3 6 30 1016 10 16.09344 0 0
12:35 pm 12:35 Partly Cloudy 78 25.4 68 19.9 72 72 WSW 3 6 29.97 1015 10 16.09344 0 0
12:55 pm 12:55 Partly Cloudy 79 26 68 20.1 70 70 SSW 5 7 29.97 1015 10 16.09344 0 0
1:15 pm 13:15 Partly Cloudy 78 25.8 68 19.9 70 70 WSW 3 6 29.97 1015 10 16.09344 0 0
1:35 pm 13:35 Partly Cloudy 80 26.8 68 20.1 67 67 SE 5 7 29.97 1015 10 16.09344 0 0
1:55 pm 13:55 Mostly Cloudy 79 25.9 67 19.7 69 69 Calm 29.97 1015 10 16.09344 0 0
2:15 pm 14:15 Partly Cloudy 82 27.5 68 20 64 64 SSE 5 7 29.97 1015 10 16.09344 0 0
2:35 pm 14:35 Mostly Cloudy 83 28.1 67 19.6 60 60 SSE 5 7 29.91 1013 10 16.09344 0 0
2:55 pm 14:55 Partly Cloudy 83 28.1 67 19.7 60 60 Calm 29.91 1013 10 16.09344 0 0
3:15 pm 15:15 Partly Cloudy 83 28.4 67 19.5 59 59 Calm 29.91 1013 10 16.09344 0 0
3:35 pm 15:35 Mostly Cloudy 83 28.4 67 19.3 58 58 SW 5 7 29.91 1013 10 16.09344 0 0
3:55 pm 15:55 Mostly Cloudy 84 28.7 66 19.1 56 56 SSW 5 7 29.91 1013 10 16.09344 0 0
4:15 pm 16:15 Mostly Cloudy 84 28.9 66 18.9 55 55 Calm 29.88 1012 10 16.09344 0 0
4:35 pm 16:35 Cloudy 84 28.9 67 19.2 56 56 SSE 5 7 29.88 1012 10 16.09344 0 0
4:55 pm 16:55 Mostly Cloudy 84 28.8 66 18.9 55 55 Calm 29.88 1012 10 16.09344 0 0
5:15 pm 17:15 Sunny 84 29.1 66 18.7 53 53 Calm 29.88 1012 10 16.09344 0 0
5:35 pm 17:35 Partly Cloudy 84 29.1 66 18.7 53 53 Calm 29.88 1012 10 16.09344 0 0
5:55 pm 17:55 Partly Cloudy 85 29.6 66 18.9 53 53 Calm 29.88 1012 10 16.09344 0 0
6:15 pm 18:15 Partly Cloudy 85 29.2 65 18.6 53 53 Calm 29.88 1012 10 16.09344 0 0
6:35 pm 18:35 Mostly Cloudy 85 29.2 66 18.8 53 53 S 3 6 29.88 1012 10 16.09344 0 0
6:55 pm 18:55 Cloudy 84 29.1 66 19 54 54 SSW 5 7 29.88 1012 10 16.09344 0 0
7:15 pm 19:15 Partly Cloudy 83 28.5 65 18.6 55 55 SW 3 6 29.88 1012 10 16.09344 0 0
7:35 pm 19:35 Sunny 83 28.5 66 18.9 56 56 S 3 6 29.88 1012 10 16.09344 0 0
7:55 pm 19:55 Sunny 81 27 67 19.4 63 63 S 5 7 29.91 1013 10 16.09344 0 0
8:15 pm 20:15 Sunny 79 26 68 20.2 70 70 SSE 5 7 29.91 1013 10 16.09344 0 0
8:35 pm 20:35 Sunny 77 25 68 20 74 74 SE 3 6 29.91 1013 10 16.09344 0 0
8:55 pm 20:55 Clear 76 24.4 68 19.9 76 76 SE 5 7 29.91 1013 10 16.09344 0 0
9:15 pm 21:15 Clear 73 22.9 68 20 84 84 SSE 5 7 29.94 1014 10 16.09344 0 0
9:35 pm 21:35 Clear 73 22.6 67 19.7 84 84 SSE 3 6 29.94 1014 10 16.09344 0 0
9:55 pm 21:55 Clear 72 22.1 68 20 88 88 SSE 3 6 29.94 1014 7 11.265408 0 0
10:15 pm 22:15 Clear 71 21.5 68 19.8 90 90 SSE 3 6 29.97 1015 10 16.09344 0 0
10:35 pm 22:35 Clear 70 21.2 67 19.4 90 90 SSE 3 6 29.97 1015 10 16.09344 0 0
10:55 pm 22:55 Clear 70 21 67 19.5 91 91 SSE 5 7 29.97 1015 10 16.09344 0 0
11:15 pm 23:15 Clear 70 20.9 66 19.1 90 90 SSE 5 7 29.97 1015 10 16.09344 0 0
11:35 pm 23:35 Clear 67 19.6 65 18.5 93 93 S 5 7 30 1016 10 16.09344 0 0
11:55 pm 23:55 Clear 67 19.7 65 18.5 93 93 S 3 6 30 1016 10 16.09344 0 0

Powered by AerisWeather